"Pseudo-MPEC" for P22pkXQ

Created 2026 Aug 13 14:35:34 UT using Find_Orb

Click here for an explanation of pseudo-MPECs

 
 Astrometry: 
     P22pkXQ 0C2026 07 14.55184722 42 15.852+02 39 34.12   ~8DDZ 21.36wXNEOCPF51
     P22pkXQ 0C2026 07 14.56366622 42 15.398+02 39 56.25   ~8DDZ 21.46wXNEOCPF51
     P22pkXQ 0C2026 07 14.58751722 42 14.500+02 40 40.74   ~8DDZ 21.52wXNEOCPF51
     P22pkXQ 0C2026 07 26.44297022 32 05.212+09 00 30.75   ~8DDZ 21.31wXNEOCPF52
     P22pkXQ 0C2026 07 26.45330222 32 04.442+09 00 51.13   ~8DDZ 21.51wXNEOCPF52
     P22pkXQ 0C2026 07 26.46364122 32 03.715+09 01 11.29   ~8DDZ 21.31wXNEOCPF52
     P22pkXQ 0C2026 07 26.47400522 32 02.958+09 01 31.57   ~8DDZ 21.14wXNEOCPF52
     P22pkXQ*0C2026 08 13.36926522 04 23.188+18 24 26.22   ~8DCK 20.88wXNEOCPF52
     P22pkXQ 0C2026 08 13.38133022 04 21.785+18 24 47.04   ~8DCK 21.10wXNEOCPF52
     P22pkXQ 0C2026 08 13.39347222 04 20.364+18 25 08.08   ~8DCK 21.08wXNEOCPF52
     P22pkXQ 0C2026 08 13.40581422 04 18.920+18 25 29.46   ~8DCK 21.06wXNEOCPF52

Station data:
(F51) Pan-STARRS 1, Haleakala  (N20.707234 W156.255910)  US/Hawaii.
   Observers J. Herman, T. Lowe, P. Minguez, A. Schultz, I. Smith. Measurers
   K. Chambers, T. de Boer, J. Fairlamb, H. Gao, M. Huber, C.-C. Lin, E.
   Magnier, Y. Ramanjooloo, R. Wainscoat, R. Weryk. 1.8-m Ritchey-Chrétien +
   CCD.
(F52) Pan-STARRS 2, Haleakala  (N20.707382 W156.255910)  US/Hawaii.
   Observers J. Herman, T. Lowe, P. Minguez, A. Schultz, I. Smith. Measurers
   K. Chambers, T. de Boer, J. Fairlamb, H. Gao, M. Huber, C.-C. Lin, E.
   Magnier, Y. Ramanjooloo, R. Wainscoat, R. Weryk. 1.8-m Ritchey-Chrétien +
   CCD.

Orbital elements:  P22pkXQ
   Perihelion 2026 Sep 14.425011 +/- 0.00949 TT = 10:12:00.9 (JD 2461297.925011)
Epoch 2026 Aug 13.0 TT = JDT 2461265.5   Earth MOID: 0.8188      AutoNEOCP
M 352.142081751 +/- 0.0028          (J2000 ecliptic)
n   0.242341269 +/- 3.46e-5         Peri.   38.905727 +/- 0.0046
a   2.547912227 +/- 0.000242        Node   308.926648 +/- 0.0010
e   0.30470801 +/- 4.95e-5          Incl.   34.232495 +/- 0.0017
P   4.06702                H 18.95  G  0.15   U  5.8
q 1.771542956 +/- 4.26e-5    Q 3.324281497 +/- 0.000442
From 11 observations 2026 July 14-Aug. 13; mean residual 0".07
Residuals in arcseconds: 
260714 F51  .08+  .06-    260726 F52  .21-  .10+    260813 F52  .03+  .03-    
260714 F51  .05-  .03+    260726 F52  .07+  .02-    260813 F52  .00   .03-    
260714 F51  .03-  .03+    260726 F52  .04-  .07-    260813 F52  .01+  .00     
260726 F52  .18+  .01-    260813 F52  .04-  .06+    

Ephemerides (geocentric):
Date (UTC) HH   RA             Dec           delta  r     elong  mag " sig PA
---- --------  ------------   ------------  ------ ------ -----  --- --------
2026 08 13 15  22 03 53.869   +18 31 46.93  .85435 1.7860 145.9 20.8 .031  54
2026 08 13 16  22 03 49.142   +18 32 58.43  .85428 1.7859 145.9 20.8 .032  54
2026 08 13 17  22 03 44.412   +18 34 09.87  .85422 1.7859 145.9 20.8 .033  53
2026 08 13 18  22 03 39.679   +18 35 21.27  .85416 1.7858 145.9 20.8 .033  53
2026 08 13 19  22 03 34.944   +18 36 32.61  .85409 1.7858 145.9 20.8 .034  53
2026 08 13 20  22 03 30.205   +18 37 43.90  .85403 1.7858 145.9 20.8 .035  53
2026 08 13 21  22 03 25.465   +18 38 55.14  .85397 1.7857 145.9 20.8 .035  52
2026 08 13 22  22 03 20.721   +18 40 06.33  .85391 1.7857 145.9 20.8 .036  52
2026 08 13 23  22 03 15.975   +18 41 17.47  .85384 1.7857 145.9 20.8 .037  52
2026 08 14 00  22 03 11.226   +18 42 28.55  .85378 1.7856 145.9 20.8 .037  52
2026 08 14 01  22 03 06.474   +18 43 39.59  .85372 1.7856 145.9 20.8 .038  51
2026 08 14 02  22 03 01.720   +18 44 50.57  .85366 1.7855 146.0 20.8 .039  51
2026 08 14 03  22 02 56.963   +18 46 01.50  .85360 1.7855 146.0 20.8 .039  51
2026 08 14 04  22 02 52.203   +18 47 12.38  .85354 1.7855 146.0 20.8 .040  51
2026 08 14 05  22 02 47.441   +18 48 23.20  .85348 1.7854 146.0 20.8 .041  51
2026 08 14 06  22 02 42.677   +18 49 33.98  .85343 1.7854 146.0 20.8 .041  50
2026 08 14 07  22 02 37.909   +18 50 44.70  .85337 1.7854 146.0 20.8 .042  50
2026 08 14 08  22 02 33.139   +18 51 55.37  .85331 1.7853 146.0 20.8 .043  50
2026 08 14 09  22 02 28.367   +18 53 05.99  .85325 1.7853 146.0 20.8 .043  50
2026 08 14 10  22 02 23.592   +18 54 16.55  .85320 1.7852 146.0 20.8 .044  50
2026 08 14 11  22 02 18.814   +18 55 27.06  .85314 1.7852 146.0 20.8 .045  50
2026 08 14 12  22 02 14.034   +18 56 37.52  .85309 1.7852 146.0 20.8 .045  49
2026 08 14 13  22 02 09.251   +18 57 47.93  .85303 1.7851 146.0 20.8 .046  49
2026 08 14 14  22 02 04.466   +18 58 58.28  .85298 1.7851 146.0 20.8 .047  49
2026 08 14 15  22 01 59.678   +19 00 08.58  .85292 1.7851 146.0 20.8 .048  49
2026 08 14 16  22 01 54.888   +19 01 18.83  .85287 1.7850 146.0 20.8 .048  49
2026 08 14 17  22 01 50.095   +19 02 29.02  .85282 1.7850 146.0 20.8 .049  49
2026 08 14 18  22 01 45.300   +19 03 39.16  .85276 1.7850 146.0 20.8 .050  48
2026 08 14 19  22 01 40.503   +19 04 49.25  .85271 1.7849 146.0 20.8 .050  48
2026 08 14 20  22 01 35.702   +19 05 59.28  .85266 1.7849 146.0 20.8 .051  48
2026 08 14 21  22 01 30.900   +19 07 09.26  .85261 1.7848 146.0 20.8 .052  48
2026 08 14 22  22 01 26.095   +19 08 19.18  .85256 1.7848 146.1 20.8 .053  48
2026 08 14 23  22 01 21.288   +19 09 29.05  .85251 1.7848 146.1 20.8 .053  48
2026 08 15 00  22 01 16.478   +19 10 38.87  .85246 1.7847 146.1 20.8 .054  48
2026 08 15 01  22 01 11.666   +19 11 48.63  .85241 1.7847 146.1 20.8 .055  47
2026 08 15 02  22 01 06.851   +19 12 58.34  .85236 1.7847 146.1 20.8 .055  47
2026 08 15 03  22 01 02.034   +19 14 07.99  .85231 1.7846 146.1 20.8 .056  47
2026 08 15 04  22 00 57.215   +19 15 17.59  .85226 1.7846 146.1 20.8 .057  47
2026 08 15 05  22 00 52.393   +19 16 27.14  .85221 1.7846 146.1 20.8 .058  47
2026 08 15 06  22 00 47.569   +19 17 36.62  .85216 1.7845 146.1 20.8 .058  47
2026 08 15 07  22 00 42.743   +19 18 46.06  .85212 1.7845 146.1 20.8 .059  47
2026 08 15 08  22 00 37.914   +19 19 55.44  .85207 1.7845 146.1 20.8 .060  47
2026 08 15 09  22 00 33.083   +19 21 04.76  .85202 1.7844 146.1 20.8 .061  46
2026 08 15 10  22 00 28.250   +19 22 14.03  .85198 1.7844 146.1 20.8 .061  46
2026 08 15 11  22 00 23.414   +19 23 23.25  .85193 1.7843 146.1 20.8 .062  46
2026 08 15 12  22 00 18.576   +19 24 32.40  .85189 1.7843 146.1 20.8 .063  46
2026 08 15 13  22 00 13.736   +19 25 41.51  .85185 1.7843 146.1 20.8 .064  46
2026 08 15 14  22 00 08.894   +19 26 50.55  .85180 1.7842 146.1 20.8 .064  46